SCP
0 0 0 0 0 0 0 0 0 0 0 0 0 0 0 0 0 0 0 0 0 0 0 0 0 0 0 0 0 0 0 0 0 0 0 0 0 0 0 0 0 0 0 0
0 0 0 0 0 0 0 0 0 0 0 0 0 0 0 0 0 0 0 0 0 0 0 0 0 0 0 0 0 0 0 0 0 0 0 0 0 0 0 0 0 0 0 0
0 0 0 0 0 0 0 0 0 0 0 0 0 0 0 0 0 0 0 0 0 0 0 0 0 0 0 0 0 0 0 0 0 0 0 0 0 0 0 0 0 0 0 0
0 0 0 0 0 0 0 0 0 0 0 0 0 0 0 0 0 0 0 0 0 0 0 0 0 0 0 0 0 0 0 0 0 0 0 0 0 0 0 0 0 0 0 0
0 0 0 0 0 0 0 0 0 0 0 0 0 0 0 0 0 0 0 0 0 0 0 0 0 0 0 0 0 0 0 0 0 0 0 0 0 0 0 0 0 0 0 0
0 0 0 0 0 0 0 0 0 0 0 0 0 0 0 0 0 0 0 0 0 0 0 0 0 0 0 0 0 0 0 0 0 0 0 0 0 0 0 0 0 0 0 0
0 0 0 0 0 0 0 0 0 0 0 0 0 0 0 0 0 0 0 0 0 0 0 0 0 0 0 0 0 0 0 0 0 0 0 0 0 0 0 0 0 0 0 0
0 0 0 0 0 0 0 0 0 0 0 0 0 0 0 0 0 0 0 0 0 0 0 0 0 0 0 0 0 0 0 0 0 0 0 0 0 0 0 0 0 0 0 0
0 0 0 0 0 0 0 0 0 0 0 0 0 0 0 0 0 0 0 0 0 0 0 0 0 0 0 0 0 0 0 0 0 0 0 0 0 0 0 0 0 0 0 0
0 0 0 0 0 0 0 0 0 0 0 0 0 0 0 0 0 0 0 0 0 0 0 0 0 0 0 0 0 0 0 0 0 0 0 0 0 0 0 0 0 0 0 0
0 0 0 0 0 0 0 0 0 0 0 0 0 0 0 0 0 0 0 0 0 0 0 0 0 0 0 0 0 0 0 0 0 0 0 0 0 0 0 0 0 0 0 0
0 0 0 0 0 0 0 0 0 0 0 0 0 0 0 0 0 0 0 0 0 0 0 0 0 0 0 0 0 0 0 0 0 0 0 0 0 0 0 0 0 0 0 0
0 0 0 0 0 0 0 0 0 0 0 0 0 0 0 0 0 0 0 0 0 0 0 0 0 0 0 0 0 0 0 0 0 0 0 0 0 0 0 0 0 0 0 0
0 0 0 0 0 0 0 0 0 0 0 0 0 0 0 0 0 0 0 0 0 0 0 0 0 0 0 0 0 0 0 0 0 0 0 0 0 -0 -0 -0 -0 0 0 0
0 0 0 0 0 0 0 0 0 0 0 0 0 0 0 0 0 0 0 0 0 0 0 0 0 0 0 0 0 0 0 0 0 -0 -0 -0 -0 -0 -0 -0 -0 0 0 0
0 0 0 0 0 0 0 0 0 0 0 0 0 0 0 0 0 0 0 0 0 0 0 0 0 0 0 0 0 0 0 0 -0 -0 0 0 0 0 0 0 0 0 0 0
0 0 0 0 0 0 0 0 0 0 0 0 0 0 0 0 0 0 0 0 0 0 0 0 0 0 0 0 0 0 0 0 0 0 0 0 0 0 0 0 0 0 0 0
0 0 0 0 0 0 0 0 0 0 0 0 0 0 0 0 0 0 0 0 0 0 0 0 0 0 0 0 0 0 0 0 0 0 0 0 0 0 0 0 0 0 0 0
0 0 0 0 0 0 0 0 0 0 0 0 0 0 0 0 0 0 0 0 0 0 0 0 0 0 0 0 0 0 0 0 0 0 0 0 0 0 0 0 0 0 0 0
0 0 0 0 0 0 0 0 0 0 0 0 0 0 0 0 0 0 0 0 0 0 0 0 0 0 0 0 0 0 0 0 0 0 0 0 0 0 0 0 0 0 0 0
0 0 0 0 0 0 0 0 0 0 0 0 0 0 0 0 0 0 0 0 0 0 0 0 0 0 0 0 0 0 0 0 0 0 0 0 0 0 0 0 0 0 0 0
0 0 0 0 0 0 0 0 0 0 0 0 0 0 0 0 0 0 0 0 0 0 0 0 0 0 0 0 0 0 0 0 0 0 0 0 0 0 0 0 0 0 0 0
0 0 0 0 0 0 0 0 0 0 0 0 0 0 0 0 0 0 0 0 0 0 0 0 0 0 0 0 0 0 0 0 0 0 0 0 0 0 0 0 0 0 0 0
0 0 0 0 0 0 0 0 0 0 0 0 0 0 0 0 0 0 0 0 0 0 0 0 0 0 0 0 0 0 0 0 0 0 0 0 0 0 0 0 0 0 0 0
0 0 0 0 0 0 0 0 0 0 0 0 0 0 0 0 0 0 0 0 0 0 0 0 0 0 0 0 0 0 0 0 0 0 0 0 0 0 0 0 0 0 0 0
0 0 0 0 0 0 0 0 0 0 0 0 0 0 0 0 0 0 0 0 0 0 0 0 0 0 0 0 0 0 0 0 0 0 0 0 0 0 0 0 0 0 0 0
Wind_Speed
6 4 7 10 11 10 8 10 11 11 10 10 9 9 8 9 13 15 9 3 10 14 13 14 14 12 12 12 13 13 12 10 6 3 2 1 0 0 0 1 2 4 5 6
4 10 12 9 7 7 7 9 11 11 7 5 8 11 10 13 14 10 3 6 11 13 13 14 13 12 13 13 13 13 13 12 9 5 3 2 2 2 1 2 2 2 3 4
9 4 2 3 6 8 9 9 8 8 8 6 10 9 10 7 6 1 10 15 14 14 13 11 12 12 12 13 13 12 14 14 12 10 5 4 4 4 3 2 1 1 2 2
7 2 2 4 7 7 8 5 4 5 5 4 4 8 7 10 4 8 13 12 12 11 10 10 10 11 11 11 10 11 12 13 13 11 9 7 4 3 3 1 1 2 2 1
4 6 3 5 5 4 3 2 2 6 6 7 6 9 8 8 6 9 10 11 10 9 9 9 9 9 9 9 9 9 11 13 13 12 11 8 6 5 4 4 3 2 1 2
5 2 3 3 0 1 3 4 8 8 3 5 6 7 5 2 8 10 9 9 9 8 8 7 7 6 7 8 8 9 11 12 12 12 11 11 9 8 7 6 4 2 1 2
5 6 4 1 1 3 2 1 3 3 3 6 2 3 5 2 7 12 13 10 8 7 6 6 6 6 6 8 8 9 11 11 11 11 10 11 10 9 8 7 6 5 2 2
4 4 5 3 2 1 2 1 2 4 4 5 5 7 4 5 8 11 11 10 8 7 6 5 5 5 5 7 7 8 9 9 10 10 9 9 9 7 6 7 6 6 5 4
3 1 5 3 2 1 1 2 1 2 5 6 7 6 2 6 8 8 9 8 7 6 5 5 5 5 5 6 7 8 8 8 8 8 8 8 8 8 7 7 7 6 6 7
1 3 2 2 1 2 3 1 2 2 4 6 7 7 5 3 8 8 7 6 5 4 4 4 4 4 4 5 5 6 7 7 7 7 7 6 6 7 7 6 7 7 8 8
2 2 3 3 6 5 5 4 5 4 5 5 5 6 3 6 9 9 6 5 4 3 3 3 3 3 4 4 4 4 4 4 5 5 5 5 5 6 6 6 7 7 7 8
2 2 5 6 5 4 6 7 6 7 8 6 7 7 6 7 6 6 5 5 4 2 2 2 2 2 3 3 2 2 2 2 2 3 4 4 4 5 5 6 7 7 8 8
2 3 3 6 4 1 1 1 1 1 3 6 8 7 4 5 5 6 6 5 5 3 2 1 1 2 2 2 2 2 1 0 1 2 4 4 4 4 5 5 6 6 7 8
2 3 7 8 6 6 6 7 6 5 6 9 11 13 9 6 6 6 5 5 4 4 3 2 1 1 1 2 3 3 3 1 1 2 4 4 4 5 5 5 6 6 7 7
1 4 7 11 12 11 12 14 13 12 13 16 18 19 17 8 2 1 2 2 2 2 3 3 2 1 2 3 3 3 4 4 3 3 4 5 5 5 6 6 6 6 7 8
1 3 3 7 9 10 15 18 17 16 16 18 19 19 4 3 4 4 3 1 1 2 3 2 2 3 5 5 5 5 5 5 4 4 6 6 7 7 7 7 7 7 8 8
3 3 3 6 5 6 13 15 15 13 13 14 15 6 4 3 3 3 2 3 4 3 3 3 3 4 4 4 4 5 5 4 4 5 7 8 8 9 9 8 8 9 9 9
5 5 3 4 2 11 13 5 6 7 7 4 1 4 4 2 1 2 5 6 4 3 3 4 4 4 4 3 3 3 3 3 5 7 8 8 9 10 10 9 10 10 9 11
10 7 5 4 7 10 8 5 2 4 6 2 3 5 3 0 3 5 4 0 1 3 4 4 4 4 3 2 2 3 3 4 6 7 8 8 8 9 10 11 12 11 10 12
6 7 6 6 6 9 6 2 2 2 6 4 6 5 3 2 3 5 3 3 4 5 5 4 3 2 2 4 4 5 5 6 7 7 8 8 8 9 11 13 14 12 12 15
5 5 8 9 8 10 4 4 3 3 8 5 6 6 6 6 7 7 6 6 6 6 3 1 2 3 3 5 6 6 7 7 7 9 10 11 10 11 13 14 14 14 16 18
9 7 8 7 8 10 4 6 6 6 4 6 7 8 7 8 8 7 6 6 5 1 3 4 4 4 4 5 6 8 9 8 9 10 11 11 11 11 11 13 14 14 15 18
8 9 7 9 9 5 9 8 8 5 5 7 8 8 8 8 8 7 6 4 0 3 3 3 3 5 4 4 4 8 9 10 10 10 11 12 12 10 10 12 14 13 13 14
7 7 7 6 7 9 8 8 8 9 10 10 9 8 7 8 8 7 5 2 1 2 2 3 4 5 5 4 4 5 9 9 9 11 12 13 12 12 11 10 11 12 12 13
9 7 9 12 12 11 13 13 12 11 10 9 8 8 8 8 8 6 3 2 2 2 2 2 3 6 7 6 6 6 7 8 10 12 13 13 12 13 12 12 11 14 14 17
15 15 14 12 11 10 11 11 10 10 10 9 8 8 7 6 6 4 3 2 2 1 2 3 4 6 7 7 8 7 7 7 10 13 13 12 12 12 13 13 14 21 25 31
Wind_Direction
176 212 215 221 223 245 285 292 289 287 287 284 281 285 294 287 283 283 291 20 81 74 57 46 37 26 22 21 20 19 17 12 20 40 60 77 10 216 109 105 128 152 160 172
155 231 240 254 280 295 295 291 287 287 291 314 296 283 277 268 265 273 307 68 79 69 51 41 34 27 24 22 21 23 18 14 14 21 45 67 53 48 78 87 83 101 140 169
218 261 341 270 266 269 268 266 277 294 322 294 279 270 251 260 245 27 70 75 69 64 53 40 32 26 23 23 22 25 20 18 14 15 28 44 42 32 31 44 70 96 127 172
236 274 334 254 260 262 274 284 312 320 318 280 304 291 240 249 237 90 81 76 71 65 60 48 37 30 26 20 18 27 26 23 18 17 25 34 36 30 12 19 90 127 150 195
233 159 177 222 240 242 262 28 299 272 262 271 248 258 270 225 140 102 94 86 79 71 64 55 44 35 27 21 21 24 31 29 22 20 23 25 25 19 9 14 28 49 144 212
260 140 210 232 6 54 337 306 262 241 224 262 240 236 292 24 137 132 112 98 88 81 71 63 55 42 29 24 26 27 32 30 22 23 24 25 20 14 12 5 353 339 271 222
238 195 187 119 239 165 208 286 330 313 208 229 25 285 267 98 116 134 126 111 97 86 77 65 54 46 36 29 29 32 33 29 20 20 23 22 16 14 16 6 353 346 329 276
270 252 148 169 217 75 188 189 217 258 265 302 340 262 265 95 83 97 106 105 100 93 87 78 65 53 46 40 34 35 36 29 21 17 16 19 16 13 11 5 0 354 346 332
260 192 114 111 64 26 305 236 298 267 291 283 256 249 143 122 116 109 106 101 96 95 90 84 73 57 46 46 44 40 37 29 21 14 10 16 12 9 9 6 3 358 350 344
16 285 319 103 135 196 219 333 55 178 241 247 258 267 280 172 143 123 114 111 108 104 95 85 74 65 52 47 49 50 47 31 17 11 7 12 7 3 0 3 3 356 348 346
71 239 269 214 203 216 196 190 204 220 225 236 255 262 61 79 132 140 135 130 127 117 106 94 84 76 65 51 48 52 55 42 16 3 352 356 1 358 356 359 356 347 343 341
169 216 261 257 260 268 257 250 240 242 244 242 258 263 68 85 98 128 150 157 151 149 129 115 103 89 77 56 39 51 60 67 13 345 336 339 350 353 351 349 343 338 336 334
122 177 269 296 259 169 93 39 6 323 284 258 262 263 129 141 168 187 189 181 176 181 166 146 110 76 61 33 6 16 13 74 336 325 321 324 333 335 331 330 327 327 326 323
64 209 206 228 261 312 296 270 243 223 248 262 257 274 276 260 238 215 200 194 189 190 193 208 182 59 10 349 338 334 330 318 297 308 308 308 309 309 308 307 307 308 308 307
98 245 250 264 278 290 289 283 277 267 264 267 274 276 283 298 284 187 155 165 191 214 226 234 224 239 265 274 283 293 300 303 301 303 302 297 298 296 292 287 285 287 290 290
163 255 288 272 269 278 276 270 268 269 268 268 272 274 313 73 71 66 62 40 296 280 272 262 253 254 249 246 249 258 268 274 285 295 293 294 294 290 284 280 280 284 285 284
202 196 211 255 259 279 259 246 248 247 247 260 272 275 90 86 72 50 3 300 284 295 299 285 270 266 264 253 248 252 256 265 273 277 281 285 285 285 283 281 282 283 285 285
208 194 215 259 264 235 240 240 234 260 270 284 275 159 147 124 47 309 271 260 263 282 295 290 279 277 272 272 278 284 284 275 268 268 269 269 270 273 276 276 276 279 282 283
213 195 205 218 234 260 264 262 298 275 274 248 167 155 145 29 314 280 271 88 292 279 270 266 262 268 289 332 0 350 314 293 281 276 275 277 281 285 286 284 284 285 284 283
198 204 210 218 228 239 239 138 88 29 275 211 157 164 193 266 277 268 306 310 285 270 261 262 276 322 26 31 19 346 317 307 297 300 309 316 317 311 304 300 298 297 291 287
172 195 212 227 239 252 239 145 122 201 252 185 166 191 218 232 237 257 274 269 260 256 261 345 34 43 40 29 9 331 315 309 318 329 325 322 321 317 309 304 301 299 295 291
180 195 205 200 218 249 167 146 192 220 168 186 204 222 238 252 265 272 272 268 265 276 61 51 26 4 12 19 356 319 311 321 330 326 318 313 308 303 300 295 294 292 290 288
208 206 199 197 208 221 175 192 215 222 222 228 236 248 253 263 270 272 272 271 184 88 71 50 18 335 341 357 344 314 317 325 322 315 308 303 299 294 291 289 291 290 286 284
231 224 230 247 247 251 249 242 238 238 242 247 248 251 252 258 265 267 263 232 139 95 73 38 354 321 315 328 327 311 315 318 312 306 305 303 301 297 291 286 287 287 285 284
228 230 232 238 242 250 253 253 254 256 256 254 250 246 245 250 254 250 228 176 135 86 51 13 329 307 306 317 314 310 310 310 306 304 304 304 300 296 294 289 282 284 275 274
236 237 239 243 236 236 244 243 235 234 239 241 245 250 241 225 228 203 176 139 107 53 358 319 302 298 303 309 305 306 304 300 302 306 306 304 302 299 296 295 292 288 289 290